Regional Weather Roundup
Issued by NWS Upton, NY

Current Version | Previous Version | Graphics & Text | Print | Product List | Glossary Off
Versions: 1 2 3 4 5 6 7 8 9 10 11 12 13 14 15 16 17 18 19 20 21 22 23 24 25 26 27

000
ASUS41 KOKX 221305
RWROKX

REGIONAL WEATHER ROUNDUP
NATIONAL WEATHER SERVICE NEW YORK NY
900 AM EDT WED OCT 22 2014

NOTE: "FAIR" INDICATES FEW OR NO CLOUDS BELOW 12,000 FEET WITH NO
SIGNIFICANT WEATHER AND/OR OBSTRUCTIONS TO VISIBILITY.

NYZ071-072-176-178-NJZ106-104-221400-
NEW YORK CITY METRO AREA


CITY           SKY/WX    TMP DP  RH WIND       PRES   REMARKS
CENTRAL PARK   LGT RAIN  54  51  90 NE10G17   29.96R FOG
LAGUARDIA APRT LGT RAIN  55  52  89 NE12      29.93R
KENNEDY INTL   TSTM      55  51  86 N18G25    29.92R FOG
NEWARK/LIBERTY LGT RAIN  54  52  93 N20G26    29.93R
BRNX BOT. GARD   N/A     54  50  87 W3        29.96R
TETERBORO      LGT RAIN  54  50  87 N9G20     29.93S
$$

NYZ177-179-078>081-221400-
LONG ISLAND NEW YORK

CITY           SKY/WX    TMP DP  RH WIND       PRES   REMARKS
FARMINGDALE    LGT RAIN  55  52  89 NE16G24   29.92R
ISLIP          LGT RAIN  56  51  84 NE17G26   29.90R
SHIRLEY        CLOUDY    56  51  84 N10G21    29.92R
WESTHAMPTON      N/A     57  52  83 N16G24    29.92S
MONTAUK POINT    N/A     57  53  86 NE10G21   29.93S
$$

NYZ052-065-067-221400-
HUDSON VALLEY

CITY           SKY/WX    TMP DP  RH WIND       PRES   REMARKS
WHITE PLAINS   LGT RAIN  53  49  86 N12       29.94R
NEWBURGH       CLOUDY    50  48  93 N12       30.00R
MONTGOMERY     CLOUDY    52  47  83 NE16G23   29.99R
POUGHKEEPSIE   CLOUDY    52  48  86 N9        30.00R
ALBANY         CLOUDY    50  45  83 N14       30.08R
$$

NJZ001-105-106-008-010-013-015-019>022-104-221400-
NEW JERSEY

CITY           SKY/WX    TMP DP  RH WIND       PRES   REMARKS
NEWARK/LIBERTY LGT RAIN  54  52  93 N20G26    29.93R
TETERBORO      LGT RAIN  54  50  87 N9G20     29.93S
CALDWELL       CLOUDY    52  49  89 NE8       29.95S
MORRISTOWN     LGT RAIN  55  54  94 NE13G23   29.94R FOG
SOMERVILLE     CLOUDY    55  50  83 N12G18    29.91R
SUSSEX         CLOUDY    54  49  83 NE10      29.98R
ANDOVER          N/A     51  49  92 NE8G18    29.96S
TRENTON        LGT RAIN  55  52  89 N9G18     29.90R
MILLVILLE      PTSUNNY   57  53  86 N10       29.84S
ATLANTIC CITY  PTSUNNY   55  52  89 N12       29.83F
WRIGHTSTOWN    RAIN      55  55  99 N16       29.86R
TOMS RIVER     CLOUDY    55  52  88 N10G18    29.85F
BELMAR         CLOUDY    55  48  76 N14G23    29.88R
$$

PAZ047>061-062-071-221400-
EASTERN PENNSYLVANIA

CITY           SKY/WX    TMP DP  RH WIND       PRES   REMARKS
PHILADELPHIA   CLOUDY    58  52  80 NE18      29.87S
ALLENTOWN      LGT RAIN  54  50  87 NE10G18   29.95R
SCRANTON       CLOUDY    52  47  83 NE9       30.00R
$$

CTZ002-004>006-009-010-012-RIZ004-006-007-MAZ004-011-015-221400-
SOUTHERN NEW ENGLAND
 IN CT

CITY           SKY/WX    TMP DP  RH WIND       PRES   REMARKS
BRADLEY INTL   CLOUDY    54  47  77 N14       29.99S
HARTFORD       CLOUDY    54  48  80 N12       29.99R
DANBURY        CLOUDY    53  32  44 NE8       29.98R
WTRBRY/OXFORD  NOT AVBL
BRIDGEPORT     CLOUDY    55  50  83 NE17G25   29.96R
MERIDEN        CLOUDY    53  48  83 N9G17     29.98R
NEW HAVEN      CLOUDY    55  49  80 N16G24    29.95R
CHESTER        CLOUDY    54  50  87 N7        29.97R
GROTON         PTSUNNY   55  51  86 N13       29.94R
WILLIMANTIC    CLOUDY    54  49  83 NE14      29.98R

 IN RI

CITY           SKY/WX    TMP DP  RH WIND       PRES   REMARKS
PROVIDENCE     CLOUDY    54  52  93 N13       29.98R
BLOCK ISLAND   CLOUDY    55  52  88 NE16G29   29.92S
WESTERLY       CLOUDY    55  51  86 N14G22    29.94S

 IN MA

CITY           SKY/WX    TMP DP  RH WIND       PRES   REMARKS
BOSTON         LGT RAIN  55  53  93 NE22G28   30.02R FOG
WORCESTER      LGT RAIN  48  48 100 NE14G26   30.01R FOG
WESTFIELD      CLOUDY    52  47  83 N16G23    30.01R
PROVINCETOWN   CLOUDY    57  54  88 NE21G30   29.97R
NANTUCKET      CLOUDY    58  57  97 NE17G23   29.89S FOG
$$

ANZ330-335-338-340-345-350-353-355-221400-
COASTAL MARINE OBSERVATIONS


STATION/POSITION TIME  SKY/WX   TEMP    WIND        PRES    VSBY  WAVE
                                AIR SEA DIR/SP/G                  HT/PER
                 (UTC)          (F)     (DEG/KT/KT) (MB)    (MI)  (FT/S)
NY HARB ENTRANCE NOT AVBL
4S FIRE IS       1300               63                N/A           6/ 6
20S FIRE ISLAND  1300            59 64   40/ 29/ 35 1010.3          8/ 7
23SW MTP         1300                                 N/A           7/ 6
HUDSON CANYON    1300            66 66   80/ 21/ 25 1006.8
EXECUTION ROCKS  1300            56 63   20/ 17/ 23   N/A
WESTERN LI SOUND 1300            57      40/ 17/ 21   N/A           2/ 4
CENTRAL LI SOUND 1200            56 64   50/ 17/ 21   N/A           3/ 3
EASTERN LI SOUND 1200            57 63   30/ 16/ 21   N/A
ROBBINS REEF     1300            56      20/ 20/ 24 1011.7
$$


>>>>>>>>>>>>>>>>>>>>>>>>>>>> KEY <<<<<<<<<<<<<<<<<<<<<<<<<<<
>                                                          <
>     SKY/WX - SKY CONDITION/PRESENT WEATHER               <
>     TMP    - TEMPERATURE IN FAHRENHEIT                   <
>     DP     - DEWPOINT IN FAHRENHEIT                      <
>     RH     - RELATIVE HUMIDITY IN PERCENT                <
>     WIND   - DIRECTION AND SPEED IN MPH                  <
>     PRES   - MEAN SEA LEVEL PRESSURE IN INCHES OF HG     <
>     WCI    - WIND CHILL INDEX                            <
>     VSB    - VISIBILITY IN MILES                         <
>     HX     - HEAT INDEX                                  <
>     TC     - TEMPERATURE IN CELSIUS                      <
>     VRB    - VARIABLE WIND DIRECTION                     <
>                                                          <
>>>>>>>>>>>>>>>>>>>>>>>>>>>> KEY <<<<<<<<<<<<<<<<<<<<<<<<<<<





USA.gov is the U.S. government's official web portal to all federal, state and local government web resources and services.